Weather History for KMWO - October, 2012

Change the Weather History Date:

Sunday, October 14, 2012

  Actual Average (KDAY) Record (KDAY)
Temperature  
Mean Temperature 66 °F 54 °F  
Max Temperature 72 °F 64 °F 91 °F (1899)
Min Temperature 59 °F 44 °F 27 °F (1979)
Degree Days  
Heating Degree Days 0 11  
Month to date heating degree days 127  
Since 1 July heating degree days 217  
Cooling Degree Days 0 0  
Month to date cooling degree days 10  
Year to date cooling degree days 891  
Growing Degree Days 16 (Base 50)    
Moisture  
Dew Point 63 °F    
Average Humidity 84    
Maximum Humidity 100    
Minimum Humidity 72    
Precipitation  
Precipitation 0.00 in 0.09 in 1.46 in (2003)
Month to date precipitation 1.36  
Year to date precipitation 32.97  
Snow  
Snow 0.00 in 0.00 in - ()
Month to date snowfall 0.0  
Since 1 July snowfall 0.0  
Since 1 September snowfall 0.0  
Snow Depth -    
Sea Level Pressure  
Sea Level Pressure 29.86 in    
Wind  
Wind Speed 13 mph (SSW)    
Max Wind Speed 28 mph    
Max Gust Speed 37 mph    
Visibility 10 miles    
Events Rain    
T = Trace of Precipitation, MM = Missing Value Source: NWS Daily Summary

Daily Weather History Graph

Daily Weather History Graph

Search for Another Location

Airport or City:

Trip Planner

Search our weather history database for the weather conditions in past years. The results will help you decide how hot, cold, wet, or windy it might be!

Date:

Astronomy

Oct. 14, 2012 Rise Set
Actual Time 7:47 AM EDT 6:59 PM EDT
Civil Twilight 7:19 AM EDT 7:26 PM EDT
Nautical Twilight 6:48 AM EDT 7:57 PM EDT
Astronomical Twilight 6:17 AM EDT 8:28 PM EDT
Moon 6:45 AM EDT (10/14) 6:18 PM EDT (10/14)
Length of Visible Light 12h 06m
Length of Day
11h 12m
Waning Crescent, 1% of the Moon is Illuminated
Oct 14
Waning Crescent
Oct 15
New
Oct 21
First Quarter
Oct 29
Full
Nov 6
Last Quarter

Hourly Weather History & Observations

Time (EDT) Temp. Dew Point Humidity Pressure Visibility Wind Dir Wind Speed Gust Speed Precip Events Conditions
12:35 AM 67.6 °F 63.9 °F 88% 30.02 in 10.0 mi SSW 9.2 mph - N/A   Clear
1:15 AM 67.6 °F 63.7 °F 87% 30.02 in 10.0 mi SSW 9.2 mph - N/A   Clear
1:35 AM 67.6 °F 63.7 °F 87% 30.02 in 10.0 mi SSW 9.2 mph - N/A   Scattered Clouds
1:55 AM 67.6 °F 63.5 °F 87% 30.02 in 10.0 mi SSW 10.4 mph - N/A   Scattered Clouds
2:15 AM 67.6 °F 63.5 °F 87% 30.00 in 10.0 mi SSW 9.2 mph - N/A   Scattered Clouds
2:35 AM 67.6 °F 63.5 °F 87% 30.00 in 10.0 mi SSW 10.4 mph - N/A   Clear
2:55 AM 67.6 °F 63.7 °F 87% 30.00 in 10.0 mi SSW 9.2 mph - N/A   Clear
3:35 AM 67.6 °F 63.9 °F 88% 30.00 in 10.0 mi SSW 8.1 mph - N/A   Scattered Clouds
3:55 AM 67.6 °F 63.7 °F 87% 29.99 in 10.0 mi SSW 10.4 mph - N/A   Overcast
4:15 AM 67.1 °F 63.3 °F 88% 29.99 in 10.0 mi South 8.1 mph - N/A   Mostly Cloudy
4:35 AM 65.3 °F 61.7 °F 88% 29.99 in 10.0 mi South 9.2 mph - N/A   Scattered Clouds
4:55 AM 66.2 °F 62.2 °F 87% 29.99 in 10.0 mi South 10.4 mph - N/A   Mostly Cloudy
5:15 AM 65.3 °F 61.2 °F 86% 29.99 in 10.0 mi SSW 10.4 mph - N/A   Mostly Cloudy
5:35 AM 65.3 °F 61.2 °F 86% 29.99 in 10.0 mi SSW 11.5 mph 17.3 mph N/A   Mostly Cloudy
5:55 AM 65.3 °F 60.8 °F 85% 29.99 in 10.0 mi South 11.5 mph - N/A   Mostly Cloudy
6:15 AM 65.3 °F 61.0 °F 86% 29.99 in 10.0 mi SSW 11.5 mph - N/A   Mostly Cloudy
6:35 AM 65.3 °F 60.8 °F 85% 29.99 in 10.0 mi SSW 10.4 mph - N/A   Mostly Cloudy
6:55 AM 65.3 °F 60.4 °F 84% 29.99 in 10.0 mi SSW 10.4 mph - N/A   Overcast
7:15 AM 65.3 °F 60.3 °F 84% 29.98 in 10.0 mi South 9.2 mph 17.3 mph N/A   Overcast
7:35 AM 65.3 °F 60.3 °F 84% 29.98 in 10.0 mi South 10.4 mph 16.1 mph N/A   Overcast
7:55 AM 63.1 °F 58.3 °F 84% 29.98 in 10.0 mi South 11.5 mph - N/A   Mostly Cloudy
8:15 AM 64.9 °F 59.5 °F 83% 29.97 in 10.0 mi South 11.5 mph 16.1 mph N/A   Overcast
8:35 AM 65.1 °F 59.4 °F 82% 29.97 in 10.0 mi South 11.5 mph 17.3 mph N/A   Overcast
8:55 AM 65.3 °F 59.4 °F 81% 29.96 in 10.0 mi South 12.7 mph 20.7 mph N/A   Overcast
9:15 AM 65.3 °F 59.0 °F 80% 29.95 in 10.0 mi South 17.3 mph 23.0 mph N/A   Overcast
9:35 AM 67.3 °F 60.6 °F 79% 29.95 in 10.0 mi SSW 13.8 mph 26.5 mph N/A   Overcast
9:55 AM 67.6 °F 60.4 °F 78% 29.94 in 10.0 mi South 15.0 mph 28.8 mph N/A   Overcast
10:15 AM 67.6 °F 60.1 °F 77% 29.93 in 10.0 mi SSW 20.7 mph 29.9 mph N/A   Overcast
10:35 AM 67.6 °F 59.9 °F 76% 29.92 in 10.0 mi SSW 16.1 mph 31.1 mph N/A   Overcast
10:55 AM 67.6 °F 59.9 °F 76% 29.90 in 10.0 mi SSW 23.0 mph 32.2 mph N/A   Mostly Cloudy
11:15 AM 67.6 °F 59.7 °F 76% 29.90 in 10.0 mi SSW 21.9 mph 32.2 mph N/A   Mostly Cloudy
11:35 AM 69.1 °F 60.8 °F 75% 29.88 in 10.0 mi SSW 27.6 mph 33.4 mph N/A   Overcast
11:55 AM 72.7 °F 63.9 °F 74% 29.87 in 10.0 mi SSW 20.7 mph 29.9 mph N/A   Mostly Cloudy
12:15 PM 72.7 °F 64.0 °F 74% 29.86 in 10.0 mi SSW 21.9 mph 32.2 mph N/A   Overcast
12:35 PM 71.8 °F 63.3 °F 75% 29.83 in 10.0 mi South 21.9 mph 32.2 mph N/A   Overcast
12:55 PM 72.7 °F 63.9 °F 74% 29.83 in 10.0 mi SSW 18.4 mph 32.2 mph N/A   Overcast
1:15 PM 72.7 °F 63.9 °F 74% 29.84 in 10.0 mi SSW 17.3 mph 33.4 mph N/A   Overcast
1:35 PM 72.7 °F 63.5 °F 73% 29.83 in 10.0 mi SSW 25.3 mph 32.2 mph N/A   Overcast
1:55 PM 72.7 °F 63.1 °F 72% 29.82 in 10.0 mi SSW 23.0 mph 36.8 mph N/A   Overcast
2:15 PM 72.7 °F 64.0 °F 74% 29.81 in 10.0 mi SW 24.2 mph 36.8 mph N/A Rain Light Rain
2:35 PM 72.7 °F 64.8 °F 76% 29.80 in 10.0 mi SW 21.9 mph 35.7 mph N/A   Drizzle
2:55 PM 68.4 °F 63.1 °F 83% 29.80 in 10.0 mi SSW 13.8 mph 20.7 mph N/A Rain Rain
3:15 PM 69.4 °F 64.0 °F 83% 29.78 in 10.0 mi SSW 17.3 mph 24.2 mph N/A   Overcast
3:35 PM 72.7 °F 65.8 °F 79% 29.76 in 10.0 mi South 18.4 mph 31.1 mph N/A   Overcast
3:55 PM 72.7 °F 65.1 °F 77% 29.76 in 10.0 mi SSW 24.2 mph 33.4 mph N/A   Overcast
4:15 PM 72.7 °F 65.5 °F 78% 29.75 in 10.0 mi SSW 19.6 mph 28.8 mph N/A   Overcast
4:35 PM 72.7 °F 64.8 °F 76% 29.74 in 10.0 mi SSW 18.4 mph 25.3 mph N/A   Overcast
4:55 PM 68.4 °F 64.0 °F 86% 29.73 in 5.0 mi SW 12.7 mph 28.8 mph N/A Rain Rain
5:15 PM 67.6 °F 65.7 °F 93% 29.73 in 5.0 mi West 11.5 mph 18.4 mph N/A Rain Light Rain
5:35 PM 67.6 °F 66.0 °F 95% 29.73 in 10.0 mi SSW 15.0 mph - N/A Rain Light Rain
5:55 PM 67.6 °F 64.9 °F 91% 29.71 in 10.0 mi SSW 15.0 mph 19.6 mph N/A   Mostly Cloudy
6:15 PM 68.5 °F 64.8 °F 88% 29.71 in 10.0 mi SSW 17.3 mph 21.9 mph N/A   Mostly Cloudy
6:35 PM 67.6 °F 63.9 °F 88% 29.71 in 10.0 mi SW 12.7 mph 26.5 mph N/A   Scattered Clouds
6:55 PM 67.6 °F 64.0 °F 88% 29.71 in 10.0 mi SSW 17.3 mph 25.3 mph N/A   Scattered Clouds
7:15 PM 67.6 °F 63.7 °F 87% 29.71 in 10.0 mi SW 16.1 mph 23.0 mph N/A   Scattered Clouds
7:35 PM 67.6 °F 64.8 °F 90% 29.71 in 10.0 mi SW 15.0 mph - N/A   Clear
7:55 PM 67.6 °F 65.3 °F 92% 29.71 in 10.0 mi SSW 13.8 mph - N/A   Scattered Clouds
8:15 PM 67.6 °F 65.3 °F 92% 29.71 in 10.0 mi SSW 12.7 mph - N/A   Scattered Clouds
8:35 PM 67.6 °F 64.4 °F 89% 29.71 in 10.0 mi SSW 17.3 mph 23.0 mph N/A   Scattered Clouds
8:55 PM 67.6 °F 63.7 °F 87% 29.72 in 10.0 mi SW 15.0 mph - N/A   Clear
9:15 PM 67.1 °F 64.2 °F 90% 29.72 in 10.0 mi SW 15.0 mph 19.6 mph N/A   Clear
9:35 PM 67.6 °F 63.7 °F 87% 29.73 in 10.0 mi SW 16.1 mph - N/A   Mostly Cloudy
9:55 PM 67.6 °F 63.7 °F 87% 29.74 in 10.0 mi SW 13.8 mph 18.4 mph N/A   Overcast
10:15 PM 66.4 °F 63.0 °F 89% 29.74 in 10.0 mi SW 15.0 mph 19.6 mph N/A Rain Light Rain
10:35 PM 65.3 °F 61.9 °F 89% 29.75 in 10.0 mi SW 15.0 mph 23.0 mph N/A Rain Light Rain
10:55 PM 60.1 °F 58.5 °F 94% 29.78 in 10.0 mi West 10.4 mph 27.6 mph N/A Rain Rain
11:15 PM 59.0 °F 58.6 °F 99% 29.78 in 7.0 mi WSW 10.4 mph - N/A Rain Light Rain
11:35 PM 59.0 °F 59.0 °F 100% 29.78 in 10.0 mi West 10.4 mph - N/A   Light Drizzle
11:55 PM 59.0 °F 58.3 °F 97% 29.78 in 10.0 mi West 10.4 mph 17.3 mph N/A   Overcast